| time (UTC) | temp F | wind direction | speed MPH | gust MPH | rain 1hr in | rain 24hr in | rain mn in | humidity % | barometer mb |
| 20260508181125 | 73 | 104 | 4.0 | 3.0 | 0.00 | 0.03 | 0.00 | ||
| 20260508180125 | 73 | 66 | 2.0 | 1.0 | 0.00 | 0.03 | 0.00 | ||
| 20260508175626 | 72 | 98 | 0.0 | 3.0 | 0.00 | 0.03 | 0.00 | ||
| 20260508175124 | 72 | 94 | 4.0 | 5.0 | 0.00 | 0.03 | 0.00 | ||
| 20260508174625 | 73 | 80 | 0.0 | 2.0 | 0.00 | 0.03 | 0.00 | ||
| 20260508173625 | 73 | 135 | 2.0 | 1.0 | 0.00 | 0.03 | 0.00 | ||
| 20260508171623 | 72 | 100 | 1.0 | 3.0 | 0.00 | 0.03 | 0.00 | ||
| 20260508170623 | 74 | 90 | 3.0 | 3.0 | 0.00 | 0.03 | 0.00 | ||
| 20260508165622 | 72 | 80 | 0.0 | 0.0 | 0.00 | 0.03 | 0.00 | ||
| 20260508165120 | 72 | 105 | 4.0 | 3.0 | 0.00 | 0.03 | 0.00 | ||
| 20260508162118 | 72 | 98 | 1.0 | 0.0 | 0.00 | 0.03 | 0.00 | ||
| 20260508161117 | 72 | 93 | 2.0 | 3.0 | 0.00 | 0.03 | 0.00 | ||
| 20260508160115 | 72 | 72 | 1.0 | 3.0 | 0.00 | 0.03 | 0.00 | ||
| 20260508154615 | 71 | 103 | 3.0 | 4.0 | 0.00 | 0.03 | 0.00 | ||
| 20260508153612 | 69 | 101 | 4.0 | 7.0 | 0.00 | 0.03 | 0.00 | ||
| 20260508152110 | 68 | 93 | 5.0 | 5.0 | 0.00 | 0.03 | 0.00 | ||
| 20260508151109 | 67 | 132 | 4.0 | 7.0 | 0.00 | 0.03 | 0.00 | ||
| 20260508143600 | 65 | 100 | 5.0 | 8.0 | 0.00 | 0.03 | 0.00 | ||
| 20260508142557 | 65 | 96 | 5.0 | 6.0 | 0.00 | 0.03 | 0.00 | ||
| 20260508142055 | 64 | 73 | 5.0 | 7.0 | 0.00 | 0.03 | 0.00 | ||
| 20260508141556 | 65 | 104 | 3.0 | 4.0 | 0.00 | 0.03 | 0.00 | ||
| 20260508140554 | 64 | 80 | 7.0 | 8.0 | 0.00 | 0.03 | 0.00 | ||
| 20260508134551 | 63 | 103 | 6.0 | 9.0 | 0.00 | 0.03 | 0.00 | ||
| 20260508133550 | 62 | 127 | 8.0 | 6.0 | 0.00 | 0.03 | 0.00 | ||
| 20260508133037 | 63 | 100 | 6.0 | 5.0 | 0.00 | 0.03 | 0.00 | ||
| 20260508132548 | 63 | 100 | 6.0 | 5.0 | 0.00 | 0.03 | 0.00 | ||
| 20260508125751 | 60 | 77 | 6.0 | 5.0 | 0.00 | 0.03 | 0.00 | ||
| 20260508125544 | 60 | 77 | 6.0 | 5.0 | 0.00 | 0.03 | 0.00 | ||
| 20260508125042 | 60 | 98 | 5.0 | 6.0 | 0.00 | 0.03 | 0.00 | ||
| 20260508124751 | 59 | 86 | 6.0 | 6.0 | 0.00 | 0.03 | 0.00 | ||
| 20260508124623 | 59 | 86 | 6.0 | 6.0 | 0.00 | 0.03 | 0.00 | ||
| 20260508124543 | 59 | 86 | 6.0 | 6.0 | 0.00 | 0.03 | 0.00 | ||
| 20260508122346 | 58 | 60 | 3.0 | 1.0 | 0.00 | 0.03 | 0.00 | ||
| 20260508122034 | 58 | 60 | 3.0 | 1.0 | 0.00 | 0.03 | 0.00 | ||
| 20260508121746 | 58 | 75 | 2.0 | 3.0 | 0.00 | 0.03 | 0.00 | ||
| 20260508121535 | 58 | 75 | 2.0 | 3.0 | 0.00 | 0.03 | 0.00 | ||
| 20260508114751 | 57 | 100 | 3.0 | 3.0 | 0.00 | 0.03 | 0.00 | ||
| 20260508114533 | 57 | 100 | 3.0 | 3.0 | 0.00 | 0.03 | 0.00 | ||
| 20260508114255 | 57 | 83 | 3.0 | 4.0 | 0.00 | 0.03 | 0.00 | ||
| 20260508114032 | 57 | 83 | 3.0 | 4.0 | 0.00 | 0.03 | 0.00 | ||
| 20260508113726 | 56 | 93 | 3.0 | 3.0 | 0.00 | 0.03 | 0.00 | ||
| 20260508113533 | 56 | 93 | 3.0 | 3.0 | 0.00 | 0.03 | 0.00 | ||
| 20260508113226 | 56 | 97 | 2.0 | 2.0 | 0.00 | 0.03 | 0.00 | ||
| 20260508113108 | 56 | 97 | 2.0 | 2.0 | 0.00 | 0.03 | 0.00 | ||
| 20260508113031 | 56 | 97 | 2.0 | 2.0 | 0.00 | 0.03 | 0.00 | ||
| 20260508112659 | 56 | 96 | 3.0 | 2.0 | 0.00 | 0.03 | 0.00 | ||
| 20260508112531 | 56 | 96 | 3.0 | 2.0 | 0.00 | 0.03 | 0.00 | ||
| 20260508112248 | 55 | 103 | 3.0 | 4.0 | 0.00 | 0.03 | 0.00 | ||
| 20260508112030 | 55 | 103 | 3.0 | 4.0 | 0.00 | 0.03 | 0.00 | ||
| 20260508111739 | 55 | 103 | 2.0 | 3.0 | 0.00 | 0.03 | 0.00 | ||
| 20260508111531 | 55 | 103 | 2.0 | 3.0 | 0.00 | 0.03 | 0.00 | ||
| 20260508111233 | 56 | 98 | 2.0 | 3.0 | 0.00 | 0.03 | 0.00 | ||
| 20260508111029 | 56 | 98 | 2.0 | 3.0 | 0.00 | 0.03 | 0.00 | ||
| 20260508110249 | 56 | 96 | 2.0 | 2.0 | 0.00 | 0.03 | 0.00 | ||
| 20260508110029 | 56 | 96 | 2.0 | 2.0 | 0.00 | 0.03 | 0.00 | ||
| 20260508105751 | 56 | 80 | 2.0 | 4.0 | 0.00 | 0.03 | 0.00 | ||
| 20260508105530 | 56 | 80 | 2.0 | 4.0 | 0.00 | 0.03 | 0.00 | ||
| 20260508105028 | 56 | 75 | 4.0 | 5.0 | 0.00 | 0.03 | 0.00 | ||
| 20260508104739 | 56 | 94 | 2.0 | 2.0 | 0.00 | 0.03 | 0.00 | ||
| 20260508104529 | 56 | 94 | 2.0 | 2.0 | 0.00 | 0.03 | 0.00 | ||
| 20260508104233 | 56 | 90 | 3.0 | 7.0 | 0.00 | 0.03 | 0.00 | ||
| 20260508104028 | 56 | 90 | 3.0 | 7.0 | 0.00 | 0.03 | 0.00 | ||
| 20260508103345 | 56 | 101 | 4.0 | 4.0 | 0.00 | 0.03 | 0.00 | ||
| 20260508103026 | 56 | 101 | 4.0 | 4.0 | 0.00 | 0.03 | 0.00 | ||
| 20260508102332 | 56 | 91 | 0.0 | 4.0 | 0.00 | 0.03 | 0.00 | ||
| 20260508102025 | 56 | 91 | 0.0 | 4.0 | 0.00 | 0.03 | 0.00 | ||
| 20260508101257 | 57 | 72 | 0.0 | 0.0 | 0.00 | 0.03 | 0.00 | ||
| 20260508101025 | 57 | 72 | 0.0 | 0.0 | 0.00 | 0.03 | 0.00 | ||
| 20260508100337 | 57 | 72 | 0.0 | 0.0 | 0.00 | 0.03 | 0.00 | ||
| 20260508100145 | 57 | 72 | 0.0 | 0.0 | 0.00 | 0.03 | 0.00 | ||
| 20260508100024 | 57 | 72 | 0.0 | 0.0 | 0.00 | 0.03 | 0.00 | ||
| 20260508095023 | 57 | 72 | 0.0 | 0.0 | 0.00 | 0.03 | 0.00 | ||
| 20260508094525 | 57 | 72 | 0.0 | 0.0 | 0.00 | 0.03 | 0.00 | ||
| 20260508094023 | 57 | 72 | 0.0 | 0.0 | 0.00 | 0.03 | 0.00 | ||
| 20260508093524 | 57 | 72 | 0.0 | 0.0 | 0.00 | 0.03 | 0.00 | ||
| 20260508092522 | 57 | 72 | 0.0 | 0.0 | 0.00 | 0.03 | 0.00 | ||
| 20260508092020 | 57 | 72 | 0.0 | 0.0 | 0.00 | 0.03 | 0.00 | ||
| 20260508091521 | 58 | 72 | 0.0 | 0.0 | 0.00 | 0.03 | 0.00 | ||
| 20260508091019 | 57 | 72 | 0.0 | 0.0 | 0.00 | 0.03 | 0.00 | ||
| 20260508090019 | 58 | 72 | 0.0 | 0.0 | 0.00 | 0.03 | 0.00 | ||
| 20260508085521 | 58 | 72 | 0.0 | 0.0 | 0.00 | 0.03 | 0.00 | ||
| 20260508083253 | 59 | 72 | 0.0 | 0.0 | 0.00 | 0.03 | 0.00 | ||
| 20260508082518 | 58 | 72 | 0.0 | 0.0 | 0.00 | 0.03 | 0.00 | ||
| 20260508082016 | 58 | 72 | 0.0 | 0.0 | 0.00 | 0.03 | 0.00 | ||
| 20260508080516 | 59 | 72 | 0.0 | 0.0 | 0.00 | 0.03 | 0.00 | ||
| 20260508080015 | 59 | 72 | 0.0 | 0.0 | 0.00 | 0.03 | 0.00 | ||
| 20260508073538 | 60 | 72 | 0.0 | 0.0 | 0.00 | 0.03 | 0.00 | ||
| 20260508072218 | 60 | 72 | 0.0 | 0.0 | 0.00 | 0.03 | 0.00 | ||
| 20260508072011 | 59 | 72 | 0.0 | 0.0 | 0.00 | 0.03 | 0.00 | ||
| 20260508071512 | 60 | 72 | 0.0 | 0.0 | 0.00 | 0.03 | 0.00 | ||
| 20260508071011 | 60 | 72 | 0.0 | 0.0 | 0.00 | 0.03 | 0.00 | ||
| 20260508070010 | 60 | 72 | 0.0 | 0.0 | 0.00 | 0.03 | 0.00 | ||
| 20260508065959 | 62 | 94 | 3.0 | 2.0 | 0.00 | 0.03 | 0.00 | ||
| 20260508065654 | 62 | 80 | 2.0 | 1.0 | 0.00 | 0.03 | 0.00 | ||
| 20260508065009 | 60 | 72 | 0.0 | 0.0 | 0.00 | 0.03 | 0.00 | ||
| 20260508064510 | 60 | 72 | 0.0 | 0.0 | 0.00 | 0.03 | 0.00 | ||
| 20260508063510 | 60 | 72 | 0.0 | 0.0 | 0.00 | 0.03 | 0.00 | ||
| 20260508063009 | 61 | 72 | 0.0 | 0.0 | 0.00 | 0.03 | 0.00 | ||
| 20260508062007 | 60 | 72 | 0.0 | 0.0 | 0.00 | 0.03 | 0.00 | ||
| 20260508061508 | 60 | 103 | 2.0 | 2.0 | 0.00 | 0.03 | 0.00 | ||
| 20260508060508 | 61 | 63 | 0.0 | 0.0 | 0.00 | 0.03 | 0.00 | ||
| 20260508060006 | 61 | 63 | 0.0 | 0.0 | 0.00 | 0.03 | 0.00 | ||
| 20260508055507 | 61 | 63 | 0.0 | 0.0 | 0.00 | 0.03 | 0.00 | ||
| 20260508055004 | 61 | 77 | 1.0 | 1.0 | 0.00 | 0.03 | 0.00 | ||
| 20260508054505 | 61 | 114 | 2.0 | 1.0 | 0.00 | 0.03 | 0.00 | ||
| 20260508054004 | 61 | 110 | 2.0 | 1.0 | 0.00 | 0.03 | 0.00 | ||
| 20260508053505 | 62 | 84 | 0.0 | 0.0 | 0.00 | 0.03 | 0.00 | ||
| 20260508053017 | 63 | 187 | 0.0 | 0.0 | 0.00 | 0.03 | 0.00 | ||
| 20260508053003 | 62 | 132 | 2.0 | 2.0 | 0.00 | 0.03 | 0.00 | ||
| 20260508052504 | 62 | 94 | 3.0 | 2.0 | 0.00 | 0.03 | 0.00 | ||
| 20260508052002 | 62 | 80 | 2.0 | 1.0 | 0.00 | 0.03 | 0.00 | ||
| 20260508051503 | 62 | 160 | 0.0 | 3.0 | 0.00 | 0.03 | 0.00 | ||
| 20260508051132 | 63 | 70 | 3.0 | 4.0 | 0.00 | 0.03 | 0.00 | ||
| 20260508051002 | 62 | 58 | 1.0 | 3.0 | 0.00 | 0.03 | 0.00 | ||
| 20260508050503 | 63 | 187 | 0.0 | 0.0 | 0.00 | 0.03 | 0.00 | ||
| 20260508050001 | 63 | 125 | 3.0 | 3.0 | 0.00 | 0.03 | 0.00 | ||
| 20260508045502 | 63 | 83 | 4.0 | 4.0 | 0.00 | 0.03 | 0.00 | ||
| 20260508045000 | 63 | 70 | 3.0 | 4.0 | 0.00 | 0.03 | 0.00 | ||
| 20260508044501 | 64 | 105 | 4.0 | 2.0 | 0.00 | 0.03 | 0.00 | ||
| 20260508044000 | 64 | 69 | 4.0 | 4.0 | 0.00 | 0.03 | 0.00 | ||
| 20260508043501 | 65 | 49 | 4.0 | 2.0 | 0.00 | 0.03 | 0.00 | ||
| 20260508042959 | 65 | 132 | 4.0 | 3.0 | 0.00 | 0.03 | 0.00 | ||
| 20260508042500 | 65 | 79 | 3.0 | 3.0 | 0.00 | 0.03 | 0.00 | ||
| 20260508041958 | 66 | 91 | 2.0 | 2.0 | 0.00 | 0.03 | 0.00 | ||
| 20260508041459 | 66 | 69 | 2.0 | 2.0 | 0.00 | 0.03 | 0.00 | ||
| 20260508040657 | 70 | 249 | 0.0 | 0.0 | 0.00 | 0.00 | 0.03 | ||
| 20260508040617 | 69 | 330 | 0.0 | 0.0 | 0.00 | 0.00 | 0.03 | ||
| 20260508040459 | 68 | 13 | 5.0 | 3.0 | 0.00 | 0.00 | 0.03 | ||
| 20260508035507 | 70 | 219 | 0.0 | 0.0 | 0.00 | 0.00 | 0.03 | ||
| 20260508035458 | 70 | 125 | 1.0 | 3.0 | 0.00 | 0.00 | 0.03 | ||
| 20260508034956 | 69 | 291 | 0.0 | 0.0 | 0.00 | 0.00 | 0.03 | ||
| 20260508034537 | 70 | 15 | 1.0 | 3.0 | 0.00 | 0.00 | 0.03 | ||
| 20260508034457 | 69 | 316 | 0.0 | 2.0 | 0.00 | 0.00 | 0.03 | ||
| 20260508033955 | 70 | 212 | 2.0 | 1.0 | 0.00 | 0.00 | 0.03 | ||
| 20260508033456 | 69 | 349 | 1.0 | 2.0 | 0.00 | 0.00 | 0.03 | ||
| 20260508032955 | 69 | 315 | 2.0 | 2.0 | 0.00 | 0.00 | 0.03 | ||
| 20260508032837 | 70 | 298 | 2.0 | 0.0 | 0.00 | 0.00 | 0.03 | ||
| 20260508032456 | 69 | 290 | 1.0 | 0.0 | 0.00 | 0.00 | 0.03 | ||
| 20260508031954 | 69 | 266 | 0.0 | 0.0 | 0.00 | 0.00 | 0.03 | ||
| 20260508031455 | 69 | 249 | 0.0 | 0.0 | 0.00 | 0.00 | 0.03 | ||
| 20260508030953 | 70 | 249 | 0.0 | 0.0 | 0.00 | 0.00 | 0.03 | ||
| 20260508030454 | 69 | 330 | 0.0 | 0.0 | 0.00 | 0.00 | 0.03 | ||
| 20260508025953 | 70 | 219 | 0.0 | 0.0 | 0.00 | 0.00 | 0.03 | ||
| 20260508025454 | 70 | 219 | 0.0 | 0.0 | 0.00 | 0.00 | 0.03 | ||
| 20260508024952 | 69 | 219 | 1.0 | 0.0 | 0.00 | 0.00 | 0.03 | ||
| 20260508024453 | 70 | 15 | 1.0 | 3.0 | 0.00 | 0.00 | 0.03 | ||
| 20260508023951 | 70 | 301 | 2.0 | 2.0 | 0.00 | 0.00 | 0.03 | ||
| 20260508023452 | 70 | 309 | 4.0 | 4.0 | 0.00 | 0.00 | 0.03 | ||
| 20260508022950 | 70 | 298 | 2.0 | 0.0 | 0.00 | 0.00 | 0.03 | ||
| 20260508022451 | 70 | 253 | 1.0 | 2.0 | 0.00 | 0.00 | 0.03 | ||
| 20260508021949 | 70 | 170 | 3.0 | 1.0 | 0.00 | 0.00 | 0.03 | ||
| 20260508021450 | 70 | 354 | 2.0 | 4.0 | 0.00 | 0.00 | 0.03 | ||
| 20260508020948 | 70 | 214 | 0.0 | 0.0 | 0.00 | 0.00 | 0.03 | ||
| 20260508020449 | 70 | 276 | 1.0 | 1.0 | 0.00 | 0.00 | 0.03 | ||
| 20260508020248 | 70 | 352 | 1.0 | 1.0 | 0.00 | 0.00 | 0.03 | ||
| 20260508015950 | 72 | 197 | 0.0 | 2.0 | 0.00 | 0.00 | 0.03 | ||
| 20260508015947 | 70 | 300 | 0.0 | 2.0 | 0.00 | 0.00 | 0.03 | ||
| 20260508015514 | 72 | 350 | 0.0 | 1.0 | 0.00 | 0.00 | 0.03 | ||
| 20260508015448 | 70 | 359 | 2.0 | 2.0 | 0.00 | 0.00 | 0.03 | ||
| 20260508015037 | 72 | 339 | 1.0 | 1.0 | 0.00 | 0.00 | 0.03 | ||
| 20260508014947 | 71 | 259 | 0.0 | 0.0 | 0.00 | 0.00 | 0.03 | ||
| 20260508014726 | 73 | 332 | 0.0 | 0.0 | 0.00 | 0.00 | 0.03 | ||
| 20260508014546 | 73 | 263 | 0.0 | 0.0 | 0.00 | 0.00 | 0.03 | ||
| 20260508014448 | 70 | 352 | 1.0 | 1.0 | 0.00 | 0.00 | 0.03 | ||
| 20260508014436 | 73 | 267 | 2.0 | 3.0 | 0.00 | 0.00 | 0.03 | ||
| 20260508013946 | 70 | 307 | 1.0 | 2.0 | 0.00 | 0.00 | 0.03 | ||
| 20260508013447 | 71 | 198 | 0.0 | 0.0 | 0.00 | 0.00 | 0.03 | ||
| 20260508012945 | 71 | 263 | 3.0 | 3.0 | 0.00 | 0.00 | 0.03 | ||
| 20260508012446 | 71 | 287 | 1.0 | 1.0 | 0.00 | 0.00 | 0.03 | ||
| 20260508011944 | 71 | 302 | 0.0 | 1.0 | 0.00 | 0.00 | 0.03 | ||
| 20260508011445 | 71 | 239 | 0.0 | 0.0 | 0.00 | 0.00 | 0.03 | ||
| 20260508010943 | 71 | 345 | 1.0 | 0.0 | 0.00 | 0.00 | 0.03 | ||
| 20260508010444 | 71 | 335 | 1.0 | 1.0 | 0.00 | 0.00 | 0.03 | ||
| 20260508005943 | 71 | 325 | 1.0 | 1.0 | 0.00 | 0.00 | 0.03 | ||
| 20260508005444 | 72 | 318 | 1.0 | 2.0 | 0.00 | 0.00 | 0.03 | ||
| 20260508004942 | 72 | 8 | 1.0 | 2.0 | 0.00 | 0.00 | 0.03 | ||
| 20260508004443 | 72 | 262 | 0.0 | 0.0 | 0.00 | 0.00 | 0.03 | ||
| 20260508003941 | 72 | 197 | 0.0 | 2.0 | 0.00 | 0.00 | 0.03 | ||
| 20260508003442 | 72 | 350 | 0.0 | 1.0 | 0.00 | 0.00 | 0.03 | ||
| 20260508002940 | 72 | 339 | 1.0 | 1.0 | 0.00 | 0.00 | 0.03 | ||
| 20260508002441 | 73 | 332 | 0.0 | 0.0 | 0.00 | 0.00 | 0.03 | ||
| 20260508001940 | 73 | 263 | 0.0 | 0.0 | 0.00 | 0.00 | 0.03 | ||
| 20260508001440 | 73 | 267 | 2.0 | 3.0 | 0.00 | 0.00 | 0.03 | ||
| 20260508000939 | 73 | 309 | 1.0 | 0.0 | 0.00 | 0.00 | 0.03 | ||
| 20260508000441 | 73 | 328 | 1.0 | 0.0 | 0.00 | 0.00 | 0.03 | ||
| 20260508000436 | 74 | 243 | 2.0 | 1.0 | 0.00 | 0.00 | 0.03 | ||
| 20260507234437 | 74 | 281 | 2.0 | 1.0 | 0.00 | 0.00 | 0.03 | ||
| 20260507233935 | 74 | 269 | 2.0 | 0.0 | 0.00 | 0.00 | 0.03 | ||
| 20260507233436 | 74 | 340 | 1.0 | 2.0 | 0.00 | 0.00 | 0.03 | ||
| 20260507232934 | 74 | 243 | 2.0 | 1.0 | 0.00 | 0.00 | 0.03 | ||
| 20260507232435 | 75 | 323 | 0.0 | 0.0 | 0.00 | 0.00 | 0.03 | ||
| 20260507231933 | 74 | 294 | 3.0 | 5.0 | 0.00 | 0.00 | 0.03 | ||
| 20260507231434 | 75 | 326 | 4.0 | 4.0 | 0.00 | 0.00 | 0.03 | ||
| 20260507230932 | 74 | 328 | 2.0 | 3.0 | 0.00 | 0.00 | 0.03 | ||
| 20260507230433 | 75 | 319 | 3.0 | 3.0 | 0.00 | 0.00 | 0.03 | ||
| 20260507225433 | 74 | 242 | 1.0 | 2.0 | 0.00 | 0.00 | 0.03 | ||
| 20260507224931 | 75 | 278 | 3.0 | 2.0 | 0.00 | 0.00 | 0.03 | ||
| 20260507224432 | 75 | 290 | 4.0 | 3.0 | 0.00 | 0.00 | 0.03 | ||
| 20260507223930 | 74 | 290 | 3.0 | 5.0 | 0.00 | 0.00 | 0.03 | ||
| 20260507222929 | 75 | 325 | 3.0 | 2.0 | 0.00 | 0.00 | 0.03 | ||
| 20260507222430 | 74 | 325 | 3.0 | 2.0 | 0.00 | 0.00 | 0.03 | ||
| 20260507221928 | 75 | 302 | 2.0 | 4.0 | 0.00 | 0.00 | 0.03 | ||
| 20260507220927 | 75 | 314 | 4.0 | 6.0 | 0.00 | 0.00 | 0.03 | ||
| 20260507220428 | 75 | 325 | 5.0 | 3.0 | 0.00 | 0.00 | 0.03 | ||
| 20260507215927 | 75 | 318 | 4.0 | 5.0 | 0.00 | 0.00 | 0.03 | ||
| 20260507215428 | 74 | 325 | 3.0 | 1.0 | 0.00 | 0.00 | 0.03 | ||
| 20260507214926 | 75 | 315 | 4.0 | 4.0 | 0.00 | 0.00 | 0.03 | ||
| 20260507214427 | 75 | 318 | 6.0 | 4.0 | 0.00 | 0.00 | 0.03 | ||
| 20260507213925 | 75 | 336 | 4.0 | 4.0 | 0.00 | 0.00 | 0.03 | ||
| 20260507213427 | 75 | 319 | 4.0 | 3.0 | 0.00 | 0.00 | 0.03 | ||
| 20260507212924 | 75 | 309 | 6.0 | 4.0 | 0.00 | 0.00 | 0.03 | ||
| 20260507212425 | 74 | 285 | 4.0 | 6.0 | 0.00 | 0.00 | 0.03 | ||
| 20260507211924 | 74 | 288 | 6.0 | 5.0 | 0.00 | 0.00 | 0.03 | ||
| 20260507211425 | 75 | 335 | 5.0 | 6.0 | 0.00 | 0.00 | 0.03 | ||
| 20260507210923 | 75 | 163 | 4.0 | 2.0 | 0.00 | 0.00 | 0.03 | ||
| 20260507205922 | 74 | 226 | 6.0 | 8.0 | 0.03 | 0.00 | 0.03 | ||
| 20260507204921 | 74 | 285 | 9.0 | 7.0 | 0.03 | 0.00 | 0.03 | ||
| 20260507204422 | 74 | 329 | 5.0 | 5.0 | 0.03 | 0.00 | 0.03 | ||
| 20260507203421 | 73 | 295 | 4.0 | 5.0 | 0.03 | 0.00 | 0.03 | ||
| 20260507202920 | 73 | 359 | 6.0 | 5.0 | 0.03 | 0.00 | 0.03 | ||
| 20260507202420 | 73 | 349 | 3.0 | 6.0 | 0.03 | 0.00 | 0.03 | ||
| 20260507201919 | 72 | 340 | 3.0 | 9.0 | 0.03 | 0.00 | 0.03 | ||
| 20260507201420 | 72 | 318 | 4.0 | 3.0 | 0.03 | 0.00 | 0.03 | ||
| 20260507200918 | 72 | 232 | 0.0 | 0.0 | 0.03 | 0.00 | 0.03 | ||
| 20260507200419 | 71 | 281 | 0.0 | 0.0 | 0.00 | 0.00 | 0.03 | ||
| 20260507195417 | 72 | 352 | 2.0 | 0.0 | 0.00 | 0.00 | 0.03 | ||
| 20260507194915 | 72 | 347 | 0.0 | 0.0 | 0.00 | 0.00 | 0.03 | ||
| 20260507194416 | 71 | 347 | 0.0 | 0.0 | 0.00 | 0.00 | 0.03 | ||
| 20260507193914 | 72 | 283 | 2.0 | 2.0 | 0.00 | 0.00 | 0.03 | ||
| 20260507193416 | 71 | 322 | 1.0 | 3.0 | 0.00 | 0.00 | 0.02 | ||
| 20260507192914 | 72 | 347 | 4.0 | 0.0 | 0.00 | 0.00 | 0.02 | ||
| 20260507192415 | 73 | 342 | 2.0 | 2.0 | 0.00 | 0.00 | 0.01 | ||
| 20260507191913 | 73 | 312 | 1.0 | 2.0 | 0.00 | 0.00 | 0.01 | ||
| 20260507191414 | 74 | 263 | 2.0 | 0.0 | 0.00 | 0.00 | 0.01 | ||
| 20260507190912 | 74 | 314 | 4.0 | 3.0 | 0.00 | 0.00 | 0.00 | ||
| 20260507190413 | 75 | 283 | 3.0 | 3.0 | 0.00 | 0.00 | 0.00 | ||
| 20260507185911 | 76 | 290 | 4.0 | 4.0 | 0.00 | 0.00 | 0.00 | ||
| 20260507185412 | 76 | 300 | 3.0 | 2.0 | 0.00 | 0.00 | 0.00 | ||
| 20260507184910 | 76 | 318 | 5.0 | 4.0 | 0.00 | 0.00 | 0.00 | ||
| 20260507184412 | 77 | 338 | 4.0 | 6.0 | 0.00 | 0.00 | 0.00 | ||
| 20260507183910 | 77 | 231 | 5.0 | 1.0 | 0.00 | 0.00 | 0.00 | ||
| 20260507183411 | 78 | 266 | 5.0 | 7.0 | 0.00 | 0.00 | 0.00 | ||
| 20260507182909 | 77 | 304 | 3.0 | 5.0 | 0.00 | 0.00 | 0.00 | ||
| 20260507182410 | 77 | 356 | 1.0 | 0.0 | 0.00 | 0.00 | 0.00 | ||
| 20260507181908 | 76 | 295 | 4.0 | 3.0 | 0.00 | 0.00 | 0.00 |